Terminal Aerodrome Forecast
Issued by NWS Melbourne, FL

Home | Current Version | Previous Version | Text Only | Print | Product List | Glossary On
Versions: 1 2 3 4 5 6 7 8 9 10 11 12 13 14 15 16 17 18 19 20 21 22 23 24
000
FTUS42 KMLB 301100
TAFMCO
TAF
KMCO 301140Z 3012/3112 27005KT P6SM SCT250
     FM301600 29010G15KT P6SM SCT040 BKN140
      TEMPO 3017/3020 P6SM BKN035
     FM302000 33013G20KT P6SM SCT040 BKN250
     FM310100 35009KT P6SM SCT250=

USA.gov is the U.S. government's official web portal to all federal, state and local government web resources and services.